Time,TemperatureF,DewpointF,PressureIn,WindDirection,WindDirectionDegrees,WindSpeedMPH,WindSpeedGustMPH,Humidity,HourlyPrecipIn,Conditions,Clouds,dailyrainin,SoftwareType,DateUTC
2013-02-03 00:14:00,-999.0,-99.9,31.91,North,-999,-999.0,-999.0,-999,0.00,,,0.00,weatherlink.com 1.10,2013-02-03 07:14:00,
2013-02-03 00:29:00,-999.0,-99.9,31.91,North,-999,-999.0,-999.0,-999,0.00,,,0.00,weatherlink.com 1.10,2013-02-03 07:29:00,
2013-02-03 00:44:00,-999.0,-99.9,31.90,North,-999,-999.0,-999.0,-999,0.00,,,0.00,weatherlink.com 1.10,2013-02-03 07:44:00,
2013-02-03 00:59:00,-999.0,-99.9,31.89,North,-999,-999.0,-999.0,-999,0.00,,,0.00,weatherlink.com 1.10,2013-02-03 07:59:00,
2013-02-03 01:14:00,-999.0,-99.9,31.88,North,-999,-999.0,-999.0,-999,0.00,,,0.00,weatherlink.com 1.10,2013-02-03 08:14:00,
2013-02-03 01:29:00,-999.0,-99.9,31.87,North,-999,-999.0,-999.0,-999,0.00,,,0.00,weatherlink.com 1.10,2013-02-03 08:29:00,
2013-02-03 01:44:00,-999.0,-99.9,31.86,North,-999,-999.0,-999.0,-999,0.00,,,0.00,weatherlink.com 1.10,2013-02-03 08:44:00,
2013-02-03 01:59:00,-999.0,-99.9,31.86,North,-999,-999.0,-999.0,-999,0.00,,,0.00,weatherlink.com 1.10,2013-02-03 08:59:00,
2013-02-03 02:14:00,29.5,23.0,31.85,SSW,194,0.0,1.0,78,0.00,,,0.00,weatherlink.com 1.10,2013-02-03 09:14:00,
2013-02-03 02:29:00,30.0,23.0,31.86,South,184,0.0,2.0,76,0.00,,,0.00,weatherlink.com 1.10,2013-02-03 09:29:00,
2013-02-03 02:44:00,30.4,23.0,31.86,NNE,29,0.0,1.0,75,0.00,,,0.00,weatherlink.com 1.10,2013-02-03 09:44:00,
2013-02-03 02:59:00,31.1,23.0,31.86,NNE,29,0.0,1.0,73,0.00,,,0.00,weatherlink.com 1.10,2013-02-03 09:59:00,
2013-02-03 03:14:00,31.3,23.0,31.85,NNE,29,0.0,2.0,71,0.00,,,0.00,weatherlink.com 1.10,2013-02-03 10:14:00,
2013-02-03 03:29:00,30.5,23.0,31.84,NNE,29,0.0,0.0,73,0.00,,,0.00,weatherlink.com 1.10,2013-02-03 10:29:00,
2013-02-03 03:44:00,29.9,23.0,31.84,NNW,344,1.0,3.0,75,0.00,,,0.00,weatherlink.com 1.10,2013-02-03 10:44:00,
2013-02-03 03:59:00,29.9,22.0,31.84,NW,314,4.0,4.0,72,0.00,,,0.00,weatherlink.com 1.10,2013-02-03 10:59:00,
2013-02-03 04:14:00,29.5,23.0,31.84,NW,321,0.0,2.0,75,0.00,,,0.00,weatherlink.com 1.10,2013-02-03 11:14:00,
2013-02-03 04:29:00,29.9,23.0,31.83,NW,321,0.0,2.0,74,0.00,,,0.00,weatherlink.com 1.10,2013-02-03 11:29:00,
2013-02-03 04:44:00,29.8,23.0,31.84,NW,321,0.0,1.0,75,0.00,,,0.00,weatherlink.com 1.10,2013-02-03 11:44:00,
2013-02-03 04:59:00,28.7,22.0,31.83,ENE,57,0.0,4.0,77,0.00,,,0.00,weatherlink.com 1.10,2013-02-03 11:59:00,
2013-02-03 05:14:00,29.2,23.0,31.83,ENE,57,0.0,3.0,76,0.00,,,0.00,weatherlink.com 1.10,2013-02-03 12:14:00,
2013-02-03 05:29:00,29.8,22.0,31.83,ENE,57,1.0,1.0,74,0.00,,,0.00,weatherlink.com 1.10,2013-02-03 12:29:00,
2013-02-03 05:45:00,30.2,22.0,31.82,ENE,57,1.0,1.0,72,0.00,,,0.00,weatherlink.com 1.10,2013-02-03 12:45:00,
2013-02-03 06:00:00,-999.0,-99.9,31.83,North,-999,-999.0,-999.0,-999,0.00,,,0.00,weatherlink.com 1.10,2013-02-03 13:00:00,
2013-02-03 06:15:00,-999.0,-99.9,31.81,North,-999,-999.0,-999.0,-999,0.00,,,0.00,weatherlink.com 1.10,2013-02-03 13:15:00,
2013-02-03 06:30:00,-999.0,-99.9,31.81,North,-999,-999.0,-999.0,-999,0.00,,,0.00,weatherlink.com 1.10,2013-02-03 13:30:00,
2013-02-03 06:45:00,-999.0,-99.9,31.81,North,-999,-999.0,-999.0,-999,0.00,,,0.00,weatherlink.com 1.10,2013-02-03 13:45:00,
2013-02-03 07:00:00,-999.0,-99.9,31.80,North,-999,-999.0,-999.0,-999,0.00,,,0.00,weatherlink.com 1.10,2013-02-03 14:00:00,
2013-02-03 07:15:00,-999.0,-99.9,31.80,North,-999,-999.0,-999.0,-999,0.00,,,0.00,weatherlink.com 1.10,2013-02-03 14:15:00,
2013-02-03 07:30:00,-999.0,-99.9,31.79,North,-999,-999.0,-999.0,-999,0.00,,,0.00,weatherlink.com 1.10,2013-02-03 14:30:00,
2013-02-03 07:45:00,-999.0,-99.9,31.79,North,-999,-999.0,-999.0,-999,0.00,,,0.00,weatherlink.com 1.10,2013-02-03 14:45:00,
2013-02-03 08:00:00,-999.0,-99.9,31.80,North,-999,-999.0,-999.0,-999,0.00,,,0.00,weatherlink.com 1.10,2013-02-03 15:00:00,
2013-02-03 08:15:00,-999.0,-99.9,31.80,North,-999,-999.0,-999.0,-999,0.00,,,0.00,weatherlink.com 1.10,2013-02-03 15:15:00,
2013-02-03 08:30:00,-999.0,-99.9,31.80,North,-999,-999.0,-999.0,-999,0.00,,,0.00,weatherlink.com 1.10,2013-02-03 15:30:00,
2013-02-03 08:45:00,-999.0,-99.9,31.80,North,-999,-999.0,-999.0,-999,0.00,,,0.00,weatherlink.com 1.10,2013-02-03 15:45:00,
2013-02-03 09:00:00,28.1,21.0,31.80,South,188,1.0,5.0,76,0.00,,,0.00,weatherlink.com 1.10,2013-02-03 16:00:00,
2013-02-03 09:15:00,28.2,22.0,31.80,SSE,148,0.0,7.0,76,0.00,,,0.00,weatherlink.com 1.10,2013-02-03 16:15:00,
2013-02-03 09:31:00,28.5,22.0,31.81,NNE,23,0.0,5.0,75,0.00,,,0.00,weatherlink.com 1.10,2013-02-03 16:31:00,
2013-02-03 09:46:00,29.1,22.0,31.80,SE,138,2.0,4.0,76,0.00,,,0.00,weatherlink.com 1.10,2013-02-03 16:46:00,
2013-02-03 10:01:00,29.5,22.0,31.81,South,173,0.0,3.0,74,0.00,,,0.00,weatherlink.com 1.10,2013-02-03 17:01:00,
2013-02-03 10:16:00,30.9,23.0,31.81,South,173,2.0,2.0,72,0.00,,,0.00,weatherlink.com 1.10,2013-02-03 17:16:00,
2013-02-03 10:31:00,31.5,23.0,31.82,NNE,13,3.0,4.0,70,0.00,,,0.00,weatherlink.com 1.10,2013-02-03 17:31:00,
2013-02-03 10:46:00,32.3,23.0,31.81,NE,38,3.0,3.0,68,0.00,,,0.00,weatherlink.com 1.10,2013-02-03 17:46:00,
2013-02-03 11:01:00,36.6,23.0,31.81,South,180,2.0,4.0,59,0.00,,,0.00,weatherlink.com 1.10,2013-02-03 18:01:00,
2013-02-03 11:16:00,38.3,23.0,31.81,SSE,163,2.0,5.0,54,0.00,,,0.00,weatherlink.com 1.10,2013-02-03 18:16:00,
2013-02-03 11:31:00,39.8,22.0,31.82,North,11,3.0,6.0,50,0.00,,,0.00,weatherlink.com 1.10,2013-02-03 18:31:00,
2013-02-03 11:46:00,39.1,25.0,31.80,WNW,291,3.0,3.0,58,0.00,,,0.00,weatherlink.com 1.10,2013-02-03 18:46:00,
2013-02-03 12:01:00,36.0,27.0,31.80,WSW,246,1.0,3.0,69,0.00,,,0.00,weatherlink.com 1.10,2013-02-03 19:01:00,
2013-02-03 12:16:00,36.1,26.0,31.79,WNW,300,5.0,8.0,67,0.00,,,0.00,weatherlink.com 1.10,2013-02-03 19:16:00,
2013-02-03 12:31:00,37.2,25.0,31.79,South,169,3.0,3.0,61,0.00,,,0.00,weatherlink.com 1.10,2013-02-03 19:31:00,
2013-02-03 12:46:00,36.7,27.0,31.78,SE,134,0.0,9.0,67,0.00,,,0.00,weatherlink.com 1.10,2013-02-03 19:46:00,
2013-02-03 13:01:00,36.3,25.0,31.77,West,281,0.0,7.0,64,0.00,,,0.00,weatherlink.com 1.10,2013-02-03 20:01:00,
2013-02-03 13:16:00,36.1,26.0,31.76,West,272,0.0,8.0,66,0.00,,,0.00,weatherlink.com 1.10,2013-02-03 20:16:00,
2013-02-03 13:31:00,36.0,26.0,31.76,NE,50,1.0,6.0,67,0.00,,,0.00,weatherlink.com 1.10,2013-02-03 20:31:00,
2013-02-03 13:47:00,38.5,26.0,31.75,NNE,33,5.0,9.0,60,0.00,,,0.00,weatherlink.com 1.10,2013-02-03 20:47:00,
2013-02-03 14:01:00,39.9,27.0,31.75,WNW,294,5.0,8.0,60,0.00,,,0.00,weatherlink.com 1.10,2013-02-03 21:01:00,
2013-02-03 14:16:00,37.9,27.0,31.75,NE,37,3.0,7.0,65,0.00,,,0.00,weatherlink.com 1.10,2013-02-03 21:16:00,
2013-02-03 14:31:00,39.5,25.0,31.73,North,11,4.0,9.0,56,0.00,,,0.00,weatherlink.com 1.10,2013-02-03 21:31:00,
2013-02-03 14:46:00,40.0,25.0,31.73,NNE,22,5.0,10.0,55,0.00,,,0.00,weatherlink.com 1.10,2013-02-03 21:46:00,
2013-02-03 15:01:00,39.2,25.0,31.73,NE,38,3.0,8.0,58,0.00,,,0.00,weatherlink.com 1.10,2013-02-03 22:01:00,
2013-02-03 15:16:00,39.2,25.0,31.73,North,350,4.0,9.0,58,0.00,,,0.00,weatherlink.com 1.10,2013-02-03 22:16:00,
2013-02-03 15:31:00,39.7,26.0,31.72,North,351,4.0,11.0,59,0.00,,,0.00,weatherlink.com 1.10,2013-02-03 22:31:00,
2013-02-03 15:46:00,39.9,26.0,31.71,North,355,4.0,7.0,59,0.00,,,0.00,weatherlink.com 1.10,2013-02-03 22:46:00,
2013-02-03 16:01:00,40.5,26.0,31.71,NNE,15,0.0,6.0,56,0.00,,,0.00,weatherlink.com 1.10,2013-02-03 23:01:00,
2013-02-03 16:16:00,40.4,25.0,31.71,North,5,4.0,8.0,55,0.00,,,0.00,weatherlink.com 1.10,2013-02-03 23:16:00,
2013-02-03 16:31:00,40.2,26.0,31.70,NNE,15,4.0,7.0,58,0.00,,,0.00,weatherlink.com 1.10,2013-02-03 23:31:00,
2013-02-03 16:46:00,40.0,25.0,31.70,NNE,28,3.0,6.0,56,0.00,,,0.00,weatherlink.com 1.10,2013-02-03 23:46:00,
2013-02-03 17:01:00,39.5,25.0,31.71,North,5,5.0,9.0,56,0.00,,,0.00,weatherlink.com 1.10,2013-02-04 00:01:00,
2013-02-03 17:16:00,38.6,25.0,31.71,NE,39,4.0,7.0,58,0.00,,,0.00,weatherlink.com 1.10,2013-02-04 00:16:00,
2013-02-03 17:31:00,37.8,25.0,31.71,North,11,6.0,8.0,60,0.00,,,0.00,weatherlink.com 1.10,2013-02-04 00:31:00,
2013-02-03 17:46:00,37.7,26.0,31.71,North,11,7.0,11.0,62,0.00,,,0.00,weatherlink.com 1.10,2013-02-04 00:46:00,
2013-02-03 18:01:00,37.7,26.0,31.72,North,5,5.0,14.0,62,0.00,,,0.00,weatherlink.com 1.10,2013-02-04 01:01:00,
2013-02-03 18:16:00,37.6,25.0,31.72,North,360,9.0,12.0,62,0.00,,,0.00,weatherlink.com 1.10,2013-02-04 01:16:00,
2013-02-03 18:32:00,37.5,26.0,31.72,NNE,12,4.0,11.0,63,0.00,,,0.00,weatherlink.com 1.10,2013-02-04 01:32:00,
2013-02-03 18:47:00,37.4,26.0,31.72,North,360,4.0,12.0,63,0.00,,,0.00,weatherlink.com 1.10,2013-02-04 01:47:00,
2013-02-03 19:02:00,36.9,26.0,31.72,North,9,1.0,8.0,64,0.00,,,0.00,weatherlink.com 1.10,2013-02-04 02:02:00,
2013-02-03 19:17:00,37.1,26.0,31.71,NNW,343,1.0,10.0,64,0.00,,,0.00,weatherlink.com 1.10,2013-02-04 02:17:00,
2013-02-03 19:32:00,36.8,26.0,31.71,North,5,2.0,8.0,65,0.00,,,0.00,weatherlink.com 1.10,2013-02-04 02:32:00,
2013-02-03 19:47:00,36.5,26.0,31.70,NE,34,1.0,6.0,66,0.00,,,0.00,weatherlink.com 1.10,2013-02-04 02:47:00,
2013-02-03 20:02:00,36.4,26.0,31.71,NNE,22,2.0,6.0,66,0.00,,,0.00,weatherlink.com 1.10,2013-02-04 03:02:00,
2013-02-03 20:17:00,36.1,25.0,31.70,NNE,17,2.0,4.0,65,0.00,,,0.00,weatherlink.com 1.10,2013-02-04 03:17:00,
2013-02-03 20:32:00,36.0,25.0,31.70,NNE,13,0.0,4.0,65,0.00,,,0.00,weatherlink.com 1.10,2013-02-04 03:32:00,
2013-02-03 20:47:00,36.2,25.0,31.70,NE,49,1.0,2.0,64,0.00,,,0.00,weatherlink.com 1.10,2013-02-04 03:47:00,
2013-02-03 21:02:00,36.3,25.0,31.69,NNE,28,1.0,5.0,65,0.00,,,0.00,weatherlink.com 1.10,2013-02-04 04:02:00,
2013-02-03 21:17:00,36.2,25.0,31.69,North,355,3.0,7.0,65,0.00,,,0.00,weatherlink.com 1.10,2013-02-04 04:17:00,
2013-02-03 21:32:00,36.4,25.0,31.70,NNE,27,4.0,7.0,64,0.00,,,0.00,weatherlink.com 1.10,2013-02-04 04:32:00,
2013-02-03 21:47:00,36.1,25.0,31.70,NNE,15,5.0,7.0,65,0.00,,,0.00,weatherlink.com 1.10,2013-02-04 04:47:00,
2013-02-03 22:02:00,36.1,26.0,31.70,North,5,1.0,8.0,66,0.00,,,0.00,weatherlink.com 1.10,2013-02-04 05:02:00,
2013-02-03 22:17:00,35.7,25.0,31.70,North,355,6.0,6.0,66,0.00,,,0.00,weatherlink.com 1.10,2013-02-04 05:17:00,
2013-02-03 22:32:00,35.7,25.0,31.69,NNE,28,2.0,8.0,66,0.00,,,0.00,weatherlink.com 1.10,2013-02-04 05:32:00,
2013-02-03 22:47:00,35.9,25.0,31.69,North,5,4.0,5.0,66,0.00,,,0.00,weatherlink.com 1.10,2013-02-04 05:47:00,
2013-02-03 23:02:00,35.6,26.0,31.69,NNE,15,0.0,5.0,67,0.00,,,0.00,weatherlink.com 1.10,2013-02-04 06:02:00,
2013-02-03 23:17:00,35.3,26.0,31.69,North,9,3.0,4.0,68,0.00,,,0.00,weatherlink.com 1.10,2013-02-04 06:17:00,
2013-02-03 23:32:00,35.5,26.0,31.68,NNE,25,2.0,6.0,68,0.00,,,0.00,weatherlink.com 1.10,2013-02-04 06:32:00,
2013-02-03 23:47:00,36.0,26.0,31.68,North,5,0.0,5.0,67,0.00,,,0.00,weatherlink.com 1.10,2013-02-04 06:47:00,